Terminal Aerodrome Forecast
Issued by NWS Bismarck, ND

Home | Current Version | Previous Version | Text Only | Print | Product List | Glossary Off
Versions: 1 2 3 4 5 6 7 8 9 10 11 12 13 14 15 16 17 18 19 20

000
FTUS43 KBIS 010200 AAA
TAFISN
TAF AMD
KISN 010232Z 0103/0124 28007KT 5SM -SHRA SCT004 OVC015
      TEMPO 0103/0106 BKN004
     FM010900 29012KT P6SM BKN015 OVC040
     FM011800 29015KT P6SM BKN040=

USA.gov is the U.S. government's official web portal to all federal, state and local government web resources and services.